DW9919 Weather Reports


Display with metric or nautical units.
time (UTC)temp
F
wind
direction
speed
MPH
gust
MPH
rain 1hr
in
rain 24hr
in
rain mn
in
humidity
%
barometer
mb
20210924054614 65 41 5.0 10.0 0.00 0.00 0.00 78 1016.8
20210924053109 65 52 4.0 8.0 0.00 0.00 0.00 78 1016.9
20210924051606 66 38 4.0 12.0 0.00 0.00 0.00 78 1017.0
20210924050101 66 46 5.0 10.0 0.00 0.00 0.00 77 1017.0
20210924044556 66 30 7.0 12.0 0.00 0.00 0.00 77 1016.9
20210924043041 66 8 2.0 11.0 0.00 0.00 0.00 78 1017.0
20210924041605 66 30 4.0 11.0 0.00 0.00 0.00 76 1017.1
20210924040054 66 27 4.0 8.0 0.00 0.00 0.00 74 1017.1
20210924034614 67 65 3.0 8.0 0.00 0.00 0.00 73 1017.1
20210924033101 67 41 4.0 10.0 0.00 0.00 0.00 73 1017.0
20210924031619 68 348 5.0 13.0 0.00 0.00 0.00 72 1017.0
20210924030122 68 61 5.0 11.0 0.00 0.00 0.00 70 1016.9
20210924024540 68 38 5.0 12.0 0.00 0.00 0.00 70 1016.8
20210924023040 68 60 5.0 12.0 0.00 0.00 0.00 70 1016.7
20210924021607 69 63 6.0 11.0 0.00 0.00 0.00 69 1016.7
20210924020036 69 34 5.0 12.0 0.00 0.00 0.00 69 1016.5
20210924014557 69 318 6.0 12.0 0.00 0.00 0.00 68 1016.6
20210924013028 70 39 7.0 13.0 0.00 0.00 0.00 68 1016.3
20210924011547 70 61 7.0 11.0 0.00 0.00 0.00 66 1016.2
20210924010031 70 64 4.0 11.0 0.00 0.00 0.00 66 1016.2
20210924004554 70 69 3.0 8.0 0.00 0.00 0.00 65 1016.2
20210924003051 71 52 3.0 9.0 0.00 0.00 0.00 63 1016.1
20210924001618 71 52 3.0 8.0 0.00 0.00 0.00 61 1016.1
20210923234527 73 340 4.0 10.0 0.00 0.00 0.00 58 1015.8
20210923233025 74 337 3.0 8.0 0.00 0.00 0.00 56 1015.7
20210923231530 75 38 5.0 13.0 0.00 0.00 0.00 54 1015.6
20210923230117 75 51 9.0 14.0 0.00 0.00 0.00 52 1015.5
20210923224538 75 341 4.0 11.0 0.00 0.00 0.00 53 1015.4
20210923223034 76 40 6.0 12.0 0.00 0.00 0.00 50 1015.3
20210923221533 76 61 6.0 12.0 0.00 0.00 0.00 50 1015.3
20210923220020 76 60 6.0 12.0 0.00 0.00 0.00 50 1015.1
20210923214554 76 340 6.0 14.0 0.00 0.00 0.00 48 1015.1
20210923213018 76 17 4.0 13.0 0.00 0.00 0.00 48 1015.0
20210923211524 76 28 6.0 16.0 0.00 0.00 0.00 47 1015.0
20210923210035 76 91 5.0 13.0 0.00 0.00 0.00 46 1015.1
20210923204537 76 65 7.0 16.0 0.00 0.00 0.00 49 1015.0
20210923203029 76 352 7.0 13.0 0.00 0.00 0.00 48 1015.1
20210923201609 76 31 4.0 10.0 0.00 0.00 0.00 47 1015.1
20210923200029 76 4 5.0 10.0 0.00 0.00 0.00 49 1015.2
20210923194516 76 16 5.0 11.0 0.00 0.00 0.00 48 1015.4
20210923193007 75 48 4.0 9.0 0.00 0.00 0.00 50 1015.4
20210923191514 75 41 5.0 11.0 0.00 0.00 0.00 50 1015.6
20210923190006 75 48 5.0 11.0 0.00 0.00 0.00 51 1016.0
20210923184639 74 71 5.0 12.0 0.00 0.00 0.00 51 1016.1
20210923183136 74 97 2.0 11.0 0.00 0.00 0.00 51 1016.4
20210923181722 73 59 4.0 12.0 0.00 0.00 0.00 51 1016.7
20210923180225 73 40 6.0 14.0 0.00 0.00 0.00 51 1016.9
20210923174610 73 80 6.0 13.0 0.00 0.00 0.00 52 1017.0
20210923173124 72 251 7.0 15.0 0.00 0.00 0.00 53 1017.1
20210923171626 72 65 8.0 14.0 0.00 0.00 0.00 52 1017.1
20210923170123 71 342 7.0 15.0 0.00 0.00 0.00 52 1017.2
20210923164621 71 326 8.0 17.0 0.00 0.00 0.00 56 1017.4
20210923163107 71 72 9.0 14.0 0.00 0.00 0.00 57 1017.5
20210923161600 70 11 9.0 15.0 0.00 0.00 0.00 54 1017.5
20210923160106 70 20 10.0 18.0 0.00 0.00 0.00 57 1017.6
20210923154534 70 61 8.0 20.0 0.00 0.00 0.00 55 1017.6
20210923153040 69 44 8.0 19.0 0.00 0.00 0.00 57 1017.6
20210923151546 68 67 11.0 19.0 0.00 0.00 0.00 57 1017.7
20210923150137 68 46 10.0 18.0 0.00 0.00 0.00 62 1017.6
20210923144535 67 51 7.0 19.0 0.00 0.00 0.00 65 1017.5
20210923143021 66 69 9.0 18.0 0.00 0.00 0.00 69 1017.7
20210923141520 66 52 7.0 19.0 0.00 0.00 0.00 71 1017.6
20210923140033 65 46 6.0 14.0 0.00 0.00 0.00 73 1017.6
20210923134541 64 87 7.0 16.0 0.00 0.00 0.00 74 1017.5
20210923133013 63 86 8.0 14.0 0.00 0.00 0.00 77 1017.5
20210923131528 63 46 6.0 16.0 0.00 0.00 0.00 80 1017.4
20210923130012 62 37 7.0 14.0 0.00 0.00 0.00 82 1017.3
20210923124511 61 32 8.0 16.0 0.00 0.00 0.00 83 1017.2
20210923123009 61 44 7.0 16.0 0.00 0.00 0.00 86 1017.0
20210923121705 61 51 9.0 17.0 0.00 0.00 0.00 86 1016.7
20210923120245 61 28 7.0 16.0 0.00 0.00 0.00 87 1016.6
20210923114629 61 356 7.0 14.0 0.00 0.00 0.00 86 1016.5
20210923113043 61 3 8.0 16.0 0.00 0.00 0.00 87 1016.4
20210923111550 61 65 8.0 16.0 0.00 0.00 0.00 87 1016.3
20210923110125 61 51 7.0 15.0 0.00 0.00 0.00 87 1016.3
20210923104547 62 10 8.0 15.0 0.00 0.00 0.00 86 1016.3
20210923103048 62 15 8.0 14.0 0.00 0.00 0.00 87 1016.2
20210923100114 62 26 8.0 14.0 0.00 0.00 0.00 86 1016.0
20210923094603 63 356 8.0 14.0 0.00 0.00 0.00 85 1016.0
20210923093027 63 33 8.0 15.0 0.00 0.00 0.00 86 1015.9
20210923091606 63 15 9.0 15.0 0.00 0.00 0.00 84 1015.8
20210923090018 63 31 10.0 15.0 0.00 0.00 0.00 84 1015.8
20210923084512 64 60 9.0 13.0 0.00 0.00 0.00 84 1016.0
20210923083017 63 51 5.0 10.0 0.00 0.00 0.00 85 1016.1
20210923081507 64 6 4.0 10.0 0.00 0.00 0.00 84 1016.2
20210923080012 64 24 2.0 9.0 0.00 0.00 0.00 83 1016.1
20210923073140 65 3 5.0 9.0 0.00 0.00 0.00 80 1016.2
20210923073001 65 58 5.0 9.0 0.00 0.00 0.00 80 1016.2
20210923071620 65 37 5.0 11.0 0.00 0.00 0.00 79 1016.3
20210923070116 65 32 4.0 15.0 0.00 0.00 0.00 79 1016.2
20210923064643 65 55 4.0 11.0 0.00 0.00 0.00 78 1016.3
20210923063130 66 65 4.0 10.0 0.00 0.00 0.00 79 1016.3
20210923061654 66 70 3.0 12.0 0.00 0.00 0.00 78 1016.4
20210923060107 66 34 8.0 13.0 0.00 0.00 0.00 78 1016.2